PIZ25 LFMT-LSZB

Flight info

Callsign PIZ25
Flight time 1h 15m
Altitude 26000
Route NG DCT MOLEN DCT MTL A6 ROMAM Z16 LTP N871 TELNO
Aircraft PC12/L-SDFGRWY/S

Departure

Time 2026-04-23 17:36
Airport Montpellier-Méditerranée Airport (LFMT)

Arrival

Time 2026-04-23 18:52
Airport Bern Airport (LSZB)
Time Latitude Longitude Altitude Speed Heading
2026-04-23 17:23 43.57787 3.96272 13 ft 0 kts 305°
2026-04-23 17:32 43.57809 3.96264 13 ft 7 kts 24°
2026-04-23 17:32 43.57861 3.96234 13 ft 11 kts 303°
2026-04-23 17:32 43.57923 3.96173 13 ft 12 kts 357°
2026-04-23 17:33 43.58005 3.96232 13 ft 15 kts 34°
2026-04-23 17:33 43.58061 3.96254 13 ft 10 kts 325°
2026-04-23 17:33 43.58109 3.96163 13 ft 14 kts 302°
2026-04-23 17:33 43.58167 3.96045 13 ft 15 kts 306°
2026-04-23 17:34 43.58224 3.95967 13 ft 11 kts 348°
2026-04-23 17:34 43.58274 3.95987 13 ft 0 kts 42°
2026-04-23 17:34 43.58275 3.95989 13 ft 2 kts 43°
2026-04-23 17:35 43.58301 3.96060 14 ft 7 kts 65°
2026-04-23 17:35 43.58331 3.96131 16 ft 6 kts 126°
2026-04-23 17:35 43.58178 3.96417 16 ft 68 kts 127°
2026-04-23 17:36 43.57850 3.97063 143 ft 89 kts 129°
2026-04-23 17:36 43.57466 3.97814 311 ft 102 kts 133°
2026-04-23 17:36 43.57032 3.98533 655 ft 100 kts 122°
2026-04-23 17:36 43.56774 3.99452 977 ft 104 kts 109°
2026-04-23 17:37 43.56662 4.00441 1402 ft 103 kts 98°
2026-04-23 17:37 43.56713 4.01353 1921 ft 89 kts 82°
2026-04-23 17:37 43.57714 4.01540 2221 ft 140 kts 246°
2026-04-23 17:38 43.56951 4.00798 2611 ft 138 kts 213°
2026-04-23 17:38 43.56152 4.00462 3312 ft 116 kts 148°
2026-04-23 17:38 43.55961 4.01403 3842 ft 107 kts 76°
2026-04-23 17:38 43.56376 4.02243 4321 ft 104 kts 57°
2026-04-23 17:39 43.56827 4.02987 4762 ft 100 kts 47°
2026-04-23 17:39 43.57339 4.03593 5181 ft 95 kts 48°
2026-04-23 17:39 43.57840 4.04115 5562 ft 91 kts 27°
2026-04-23 17:39 43.58553 4.04104 5743 ft 115 kts 352°
2026-04-23 17:40 43.59386 4.03732 5955 ft 139 kts 347°
2026-04-23 17:40 43.60348 4.03250 6307 ft 155 kts 340°
2026-04-23 17:40 43.61394 4.02678 6716 ft 168 kts 340°
2026-04-23 17:40 43.62522 4.02073 7085 ft 180 kts 341°
2026-04-23 17:41 43.63755 4.01884 7457 ft 183 kts 19°
2026-04-23 17:41 43.65714 4.04159 8213 ft 191 kts 49°
2026-04-23 17:41 43.66641 4.05506 8594 ft 196 kts 49°
2026-04-23 17:42 43.68351 4.08442 9362 ft 199 kts 59°
2026-04-23 17:42 43.69089 4.10078 9751 ft 201 kts 60°
2026-04-23 17:42 43.69822 4.11736 10142 ft 203 kts 60°
2026-04-23 17:43 43.70555 4.13412 10499 ft 204 kts 60°
2026-04-23 17:43 43.71287 4.15097 10862 ft 205 kts 60°
2026-04-23 17:43 43.72018 4.16791 11226 ft 205 kts 60°
2026-04-23 17:43 43.72770 4.18462 11594 ft 205 kts 54°
2026-04-23 17:44 43.73684 4.19968 11967 ft 204 kts 49°
2026-04-23 17:44 43.74612 4.21460 12344 ft 205 kts 50°
2026-04-23 17:44 43.76405 4.24553 13116 ft 207 kts 51°
2026-04-23 17:45 43.77307 4.26109 13506 ft 211 kts 51°
2026-04-23 17:45 43.79165 4.29310 14274 ft 215 kts 50°
2026-04-23 17:45 43.80103 4.30927 14626 ft 216 kts 49°
2026-04-23 17:46 43.81994 4.34189 15355 ft 217 kts 49°
2026-04-23 17:46 43.82943 4.35827 15722 ft 218 kts 49°
2026-04-23 17:46 43.83893 4.37468 16099 ft 218 kts 49°
2026-04-23 17:47 43.84844 4.39112 16474 ft 219 kts 49°
2026-04-23 17:47 43.85891 4.40607 16857 ft 215 kts 30°
2026-04-23 17:47 43.88589 4.42161 17634 ft 211 kts 18°
2026-04-23 17:48 43.89964 4.42894 18033 ft 211 kts 18°
2026-04-23 17:48 43.91335 4.43632 18432 ft 211 kts 18°
2026-04-23 17:48 43.92703 4.44367 18792 ft 211 kts 17°
2026-04-23 17:48 43.94073 4.45104 19142 ft 211 kts 17°
2026-04-23 17:49 43.95441 4.45839 19496 ft 211 kts 17°
2026-04-23 17:49 43.96809 4.46575 19855 ft 210 kts 17°
2026-04-23 17:49 43.98171 4.47307 20218 ft 210 kts 16°
2026-04-23 17:49 43.99530 4.48039 20587 ft 209 kts 16°
2026-04-23 17:50 44.00887 4.48770 20959 ft 209 kts 15°
2026-04-23 17:50 44.03664 4.50264 21466 ft 218 kts 15°
2026-04-23 17:50 44.05088 4.51033 21737 ft 221 kts 15°
2026-04-23 17:51 44.06530 4.51809 21998 ft 222 kts 15°
2026-04-23 17:51 44.07979 4.52574 22260 ft 223 kts 14°
2026-04-23 17:51 44.10870 4.54104 22692 ft 226 kts 14°
2026-04-23 17:52 44.12346 4.54888 22879 ft 227 kts 14°
2026-04-23 17:52 44.15314 4.56466 23263 ft 229 kts 14°
2026-04-23 17:52 44.16808 4.57260 23453 ft 230 kts 14°
2026-04-23 17:53 44.19301 4.58587 23768 ft 231 kts 13°
2026-04-23 17:53 44.20805 4.59388 23931 ft 232 kts 13°
2026-04-23 17:53 44.22312 4.60189 24091 ft 232 kts 13°
2026-04-23 17:54 44.23819 4.60985 24258 ft 232 kts 13°
2026-04-23 17:54 44.25330 4.61782 24418 ft 232 kts 13°
2026-04-23 17:54 44.28343 4.63407 24746 ft 233 kts 14°
2026-04-23 17:55 44.31355 4.65021 25076 ft 230 kts 13°
2026-04-23 17:55 44.32851 4.65819 25245 ft 230 kts 13°
2026-04-23 17:55 44.34323 4.66607 25412 ft 229 kts 13°
2026-04-23 17:56 44.35811 4.67404 25583 ft 229 kts 13°
2026-04-23 17:56 44.38782 4.68995 25925 ft 228 kts 13°
2026-04-23 17:56 44.40264 4.69790 26095 ft 228 kts 13°
2026-04-23 17:57 44.41756 4.70589 26173 ft 232 kts 13°
2026-04-23 17:57 44.43285 4.71407 26175 ft 238 kts 14°
2026-04-23 17:57 44.46422 4.73096 26177 ft 244 kts 14°
2026-04-23 17:58 44.48016 4.73954 26175 ft 246 kts 14°
2026-04-23 17:58 44.49620 4.74817 26181 ft 248 kts 14°
2026-04-23 17:58 44.51234 4.75686 26187 ft 249 kts 14°
2026-04-23 17:58 44.52840 4.76552 26189 ft 251 kts 14°
2026-04-23 17:59 44.54470 4.77431 26189 ft 251 kts 15°
2026-04-23 17:59 44.56082 4.78395 26189 ft 253 kts 20°
2026-04-23 17:59 44.57658 4.79516 26187 ft 254 kts 20°
2026-04-23 17:59 44.59243 4.80622 26191 ft 254 kts 20°
2026-04-23 18:00 44.60828 4.81735 26192 ft 255 kts 20°
2026-04-23 18:00 44.62413 4.82856 26193 ft 255 kts 21°
2026-04-23 18:00 44.64001 4.83980 26194 ft 256 kts 21°
2026-04-23 18:00 44.65574 4.85092 26193 ft 256 kts 21°
2026-04-23 18:01 44.67169 4.86219 26191 ft 257 kts 21°
2026-04-23 18:01 44.68770 4.87352 26193 ft 258 kts 21°
2026-04-23 18:01 44.70379 4.88492 26196 ft 259 kts 22°
2026-04-23 18:01 44.71989 4.89632 26194 ft 259 kts 22°
2026-04-23 18:02 44.73604 4.90772 26193 ft 260 kts 22°
2026-04-23 18:02 44.75230 4.91893 26192 ft 260 kts 22°
2026-04-23 18:02 44.76859 4.93014 26194 ft 261 kts 22°
2026-04-23 18:02 44.78494 4.94149 26193 ft 262 kts 22°
2026-04-23 18:03 44.80110 4.95273 26186 ft 262 kts 23°
2026-04-23 18:03 44.81749 4.96413 26185 ft 263 kts 23°
2026-04-23 18:03 44.83392 4.97555 26187 ft 264 kts 24°
2026-04-23 18:03 44.85044 4.98704 26188 ft 264 kts 24°
2026-04-23 18:04 44.86693 4.99851 26194 ft 265 kts 24°
2026-04-23 18:04 44.88350 5.01006 26192 ft 266 kts 25°
2026-04-23 18:04 44.90014 5.02165 26193 ft 267 kts 25°
2026-04-23 18:04 44.91686 5.03331 26193 ft 267 kts 25°
2026-04-23 18:05 44.93357 5.04497 26191 ft 268 kts 25°
2026-04-23 18:05 44.95012 5.05653 26191 ft 269 kts 26°
2026-04-23 18:05 44.96692 5.06827 26192 ft 269 kts 26°
2026-04-23 18:05 44.98376 5.08005 26192 ft 269 kts 26°
2026-04-23 18:06 45.00062 5.09184 26192 ft 270 kts 27°
2026-04-23 18:06 45.01747 5.10364 26194 ft 271 kts 27°
2026-04-23 18:06 45.03437 5.11550 26193 ft 271 kts 27°
2026-04-23 18:06 45.05111 5.12724 26197 ft 272 kts 27°
2026-04-23 18:07 45.06807 5.13914 26196 ft 273 kts 27°
2026-04-23 18:07 45.08512 5.15111 26199 ft 273 kts 28°
2026-04-23 18:07 45.10222 5.16312 26200 ft 274 kts 28°
2026-04-23 18:07 45.11926 5.17514 26199 ft 274 kts 28°
2026-04-23 18:08 45.13056 5.18317 26214 ft 274 kts 28°
2026-04-23 18:08 45.15342 5.19941 26214 ft 275 kts 28°
2026-04-23 18:08 45.17058 5.21158 26214 ft 275 kts 29°
2026-04-23 18:08 45.18746 5.22356 26213 ft 275 kts 29°
2026-04-23 18:09 45.20461 5.23575 26214 ft 276 kts 29°
2026-04-23 18:09 45.22179 5.24797 26213 ft 276 kts 29°
2026-04-23 18:09 45.23892 5.26016 26214 ft 276 kts 30°
2026-04-23 18:09 45.25610 5.27239 26216 ft 276 kts 30°
2026-04-23 18:10 45.27327 5.28462 26215 ft 276 kts 30°
2026-04-23 18:10 45.29044 5.29687 26214 ft 276 kts 30°
2026-04-23 18:10 45.30760 5.30911 26215 ft 276 kts 30°
2026-04-23 18:10 45.32454 5.32120 26213 ft 276 kts 30°
2026-04-23 18:11 45.34176 5.33351 26211 ft 276 kts 30°
2026-04-23 18:11 45.35892 5.34578 26211 ft 276 kts 30°
2026-04-23 18:11 45.37608 5.35805 26210 ft 276 kts 31°
2026-04-23 18:11 45.39321 5.37032 26209 ft 276 kts 31°
2026-04-23 18:12 45.41039 5.38263 26209 ft 276 kts 31°
2026-04-23 18:12 45.42735 5.39478 26207 ft 276 kts 31°
2026-04-23 18:12 45.44452 5.40710 26208 ft 275 kts 31°
2026-04-23 18:12 45.46162 5.41938 26205 ft 276 kts 31°
2026-04-23 18:13 45.47875 5.43168 26205 ft 276 kts 31°
2026-04-23 18:13 45.49475 5.44608 26202 ft 268 kts 44°
2026-04-23 18:13 45.50875 5.46377 26202 ft 268 kts 46°
2026-04-23 18:13 45.52261 5.48166 26202 ft 269 kts 46°
2026-04-23 18:14 45.53657 5.49947 26196 ft 269 kts 46°
2026-04-23 18:14 45.55037 5.51693 26194 ft 269 kts 46°
2026-04-23 18:14 45.56436 5.53470 26193 ft 268 kts 46°
2026-04-23 18:14 45.57826 5.55252 26179 ft 268 kts 46°
2026-04-23 18:15 45.59211 5.57033 26179 ft 268 kts 46°
2026-04-23 18:15 45.60599 5.58815 26177 ft 268 kts 46°
2026-04-23 18:15 45.61986 5.60594 26177 ft 268 kts 46°
2026-04-23 18:15 45.63371 5.62373 26177 ft 267 kts 46°
2026-04-23 18:16 45.64756 5.64154 26179 ft 267 kts 46°
2026-04-23 18:16 45.66122 5.65913 26178 ft 268 kts 46°
2026-04-23 18:16 45.67511 5.67700 26178 ft 268 kts 46°
2026-04-23 18:17 45.70294 5.71257 26178 ft 267 kts 46°
2026-04-23 18:17 45.71678 5.73030 26180 ft 267 kts 46°
2026-04-23 18:17 45.73064 5.74810 26180 ft 267 kts 46°
2026-04-23 18:17 45.74446 5.76583 26179 ft 267 kts 46°
2026-04-23 18:18 45.75827 5.78355 26178 ft 267 kts 46°
2026-04-23 18:18 45.77191 5.80107 26178 ft 266 kts 46°
2026-04-23 18:18 45.78574 5.81885 26177 ft 266 kts 46°
2026-04-23 18:18 45.79953 5.83658 26177 ft 266 kts 46°
2026-04-23 18:19 45.81333 5.85434 26184 ft 266 kts 46°
2026-04-23 18:19 45.82707 5.87203 26187 ft 264 kts 46°
2026-04-23 18:19 45.84076 5.88969 26206 ft 265 kts 46°
2026-04-23 18:19 45.85448 5.90739 26205 ft 265 kts 46°
2026-04-23 18:20 45.86818 5.92507 26206 ft 265 kts 46°
2026-04-23 18:20 45.88176 5.94260 26205 ft 265 kts 46°
2026-04-23 18:20 45.89548 5.96033 26204 ft 265 kts 46°
2026-04-23 18:20 45.90915 5.97802 26207 ft 265 kts 46°
2026-04-23 18:21 45.92286 5.99576 26205 ft 265 kts 46°
2026-04-23 18:21 45.93654 6.01347 26203 ft 264 kts 46°
2026-04-23 18:21 45.95020 6.03117 26202 ft 264 kts 46°
2026-04-23 18:21 45.96374 6.04873 26202 ft 264 kts 46°
2026-04-23 18:22 45.97737 6.06643 26205 ft 264 kts 46°
2026-04-23 18:22 45.99098 6.08410 26205 ft 264 kts 46°
2026-04-23 18:22 46.00462 6.10182 26206 ft 264 kts 46°
2026-04-23 18:22 46.01822 6.11951 26204 ft 264 kts 46°
2026-04-23 18:23 46.02726 6.13127 26201 ft 264 kts 46°
2026-04-23 18:23 46.05908 6.17273 26202 ft 263 kts 46°
2026-04-23 18:24 46.08627 6.20819 26204 ft 263 kts 46°
2026-04-23 18:24 46.09970 6.22573 26204 ft 264 kts 46°
2026-04-23 18:24 46.11330 6.24351 26204 ft 264 kts 46°
2026-04-23 18:25 46.14050 6.27909 26204 ft 263 kts 46°
2026-04-23 18:25 46.15411 6.29691 26204 ft 263 kts 46°
2026-04-23 18:25 46.16770 6.31472 26204 ft 263 kts 46°
2026-04-23 18:25 46.18126 6.33250 26204 ft 263 kts 46°
2026-04-23 18:26 46.19463 6.35004 26207 ft 263 kts 46°
2026-04-23 18:26 46.20815 6.36780 26206 ft 263 kts 46°
2026-04-23 18:26 46.22175 6.38567 26206 ft 264 kts 46°
2026-04-23 18:26 46.23531 6.40350 26208 ft 263 kts 46°
2026-04-23 18:27 46.24882 6.42128 26207 ft 262 kts 46°
2026-04-23 18:27 46.26231 6.43905 26211 ft 262 kts 46°
2026-04-23 18:27 46.27579 6.45682 26208 ft 262 kts 46°
2026-04-23 18:27 46.28927 6.47458 26209 ft 261 kts 46°
2026-04-23 18:28 46.30252 6.49206 26218 ft 260 kts 46°
2026-04-23 18:28 46.31585 6.50968 26216 ft 260 kts 46°
2026-04-23 18:28 46.32922 6.52735 26215 ft 260 kts 46°
2026-04-23 18:28 46.34254 6.54496 26012 ft 257 kts 46°
2026-04-23 18:29 46.35574 6.56247 25644 ft 257 kts 46°
2026-04-23 18:29 46.36890 6.57991 25282 ft 256 kts 46°
2026-04-23 18:29 46.38208 6.59736 24923 ft 256 kts 45°
2026-04-23 18:29 46.39523 6.61479 24574 ft 256 kts 45°
2026-04-23 18:30 46.40834 6.63219 24216 ft 255 kts 45°
2026-04-23 18:30 46.42128 6.64938 23878 ft 255 kts 45°
2026-04-23 18:30 46.43437 6.66676 23480 ft 255 kts 45°
2026-04-23 18:30 46.44696 6.68469 23067 ft 251 kts 51°
2026-04-23 18:31 46.45795 6.70434 22666 ft 251 kts 53°
2026-04-23 18:31 46.46889 6.72410 22273 ft 250 kts 52°
2026-04-23 18:31 46.47984 6.74374 21879 ft 250 kts 52°
2026-04-23 18:31 46.49064 6.76308 21498 ft 249 kts 52°
2026-04-23 18:32 46.50154 6.78265 21114 ft 249 kts 52°
2026-04-23 18:32 46.51240 6.80215 20742 ft 248 kts 52°
2026-04-23 18:32 46.52323 6.82164 20370 ft 247 kts 52°
2026-04-23 18:32 46.53399 6.84099 20002 ft 246 kts 52°
2026-04-23 18:33 46.54471 6.86029 19639 ft 245 kts 52°
2026-04-23 18:33 46.55541 6.87956 19281 ft 244 kts 51°
2026-04-23 18:33 46.56604 6.89870 18929 ft 243 kts 51°
2026-04-23 18:33 46.57665 6.91772 18581 ft 242 kts 51°
2026-04-23 18:34 46.58722 6.93668 18186 ft 241 kts 51°
2026-04-23 18:34 46.59773 6.95558 17786 ft 240 kts 51°
2026-04-23 18:34 46.60804 6.97413 17394 ft 239 kts 51°
2026-04-23 18:34 46.61845 6.99286 17006 ft 238 kts 51°
2026-04-23 18:35 46.62887 7.01164 16618 ft 237 kts 51°
2026-04-23 18:35 46.63921 7.03027 16239 ft 236 kts 51°
2026-04-23 18:35 46.64952 7.04886 15859 ft 235 kts 51°
2026-04-23 18:35 46.65979 7.06741 15495 ft 235 kts 51°
2026-04-23 18:36 46.67004 7.08593 15128 ft 234 kts 51°
2026-04-23 18:36 46.68026 7.10440 14763 ft 233 kts 50°
2026-04-23 18:36 46.69041 7.12274 14408 ft 232 kts 50°
2026-04-23 18:36 46.70052 7.14104 14054 ft 231 kts 50°
2026-04-23 18:37 46.71056 7.15923 13655 ft 230 kts 50°
2026-04-23 18:37 46.72043 7.17713 13271 ft 229 kts 50°
2026-04-23 18:37 46.73042 7.19524 12883 ft 229 kts 50°
2026-04-23 18:37 46.74037 7.21329 12498 ft 228 kts 50°
2026-04-23 18:38 46.75028 7.23129 12119 ft 227 kts 50°
2026-04-23 18:38 46.76014 7.24922 11731 ft 226 kts 51°
2026-04-23 18:38 46.77000 7.26714 11361 ft 226 kts 51°
2026-04-23 18:38 46.77982 7.28501 10993 ft 226 kts 51°
2026-04-23 18:39 46.78962 7.30286 10626 ft 225 kts 51°
2026-04-23 18:39 46.79941 7.32070 10270 ft 225 kts 51°
2026-04-23 18:39 46.80587 7.33248 10026 ft 224 kts 52°
2026-04-23 18:39 46.81557 7.35018 9626 ft 220 kts 52°
2026-04-23 18:40 46.82804 7.37297 9109 ft 213 kts 52°
2026-04-23 18:40 46.83436 7.38423 8846 ft 210 kts 48°
2026-04-23 18:40 46.84626 7.39573 8473 ft 210 kts 21°
2026-04-23 18:40 46.86064 7.39765 8216 ft 208 kts 354°
2026-04-23 18:41 46.87384 7.38973 7990 ft 206 kts 328°
2026-04-23 18:41 46.88545 7.37757 7738 ft 204 kts 327°
2026-04-23 18:41 46.89692 7.36543 7491 ft 203 kts 327°
2026-04-23 18:41 46.90837 7.35348 7251 ft 201 kts 328°
2026-04-23 18:42 46.91975 7.34160 7003 ft 199 kts 327°
2026-04-23 18:42 46.93090 7.32990 6763 ft 194 kts 328°
2026-04-23 18:42 46.94120 7.31767 6515 ft 186 kts 322°
2026-04-23 18:42 46.95089 7.30605 6258 ft 179 kts 325°
2026-04-23 18:43 46.96046 7.29480 6002 ft 175 kts 326°
2026-04-23 18:43 46.96978 7.28366 5746 ft 171 kts 326°
2026-04-23 18:43 46.97891 7.27265 5500 ft 169 kts 326°
2026-04-23 18:43 46.98794 7.26179 5245 ft 165 kts 328°
2026-04-23 18:44 46.99784 7.25517 4990 ft 152 kts 359°
2026-04-23 18:44 47.00786 7.25751 4728 ft 143 kts 28°
2026-04-23 18:44 47.01540 7.26667 4485 ft 141 kts 52°
2026-04-23 18:44 47.02172 7.27779 4249 ft 143 kts 51°
2026-04-23 18:45 47.02811 7.28895 4031 ft 141 kts 51°
2026-04-23 18:45 47.03410 7.29936 4031 ft 131 kts 51°
2026-04-23 18:45 47.03987 7.30947 4030 ft 126 kts 54°
2026-04-23 18:45 47.04082 7.32141 4036 ft 125 kts 108°
2026-04-23 18:46 47.03677 7.33232 4040 ft 118 kts 115°
2026-04-23 18:46 47.03275 7.34249 4033 ft 112 kts 114°
2026-04-23 18:46 47.02891 7.35223 4009 ft 109 kts 114°
2026-04-23 18:46 47.02398 7.36070 4011 ft 110 kts 128°
2026-04-23 18:47 47.01854 7.36839 4010 ft 111 kts 130°
2026-04-23 18:47 47.01279 7.37594 4005 ft 111 kts 131°
2026-04-23 18:47 47.00704 7.38329 4005 ft 109 kts 131°
2026-04-23 18:47 47.00133 7.39049 4002 ft 108 kts 133°
2026-04-23 18:48 46.99561 7.39753 4000 ft 107 kts 133°
2026-04-23 18:48 46.98988 7.40451 3998 ft 107 kts 133°
2026-04-23 18:48 46.98414 7.41158 3916 ft 109 kts 133°
2026-04-23 18:48 46.97830 7.41869 3731 ft 109 kts 133°
2026-04-23 18:49 46.97251 7.42579 3542 ft 107 kts 133°
2026-04-23 18:49 46.96680 7.43278 3352 ft 106 kts 132°
2026-04-23 18:49 46.96118 7.43967 3160 ft 104 kts 131°
2026-04-23 18:49 46.95573 7.44634 2963 ft 99 kts 134°
2026-04-23 18:50 46.95221 7.45065 2841 ft 99 kts 135°
2026-04-23 18:50 46.94524 7.45920 2596 ft 99 kts 135°
2026-04-23 18:50 46.93980 7.46583 2409 ft 103 kts 136°
2026-04-23 18:50 46.93424 7.47262 2231 ft 104 kts 136°
2026-04-23 18:51 46.92870 7.47941 2056 ft 104 kts 136°
2026-04-23 18:51 46.92321 7.48620 1869 ft 104 kts 134°
2026-04-23 18:51 46.91777 7.49281 1726 ft 100 kts 138°
2026-04-23 18:51 46.91281 7.49906 1681 ft 85 kts 144°
2026-04-23 18:52 46.91002 7.50213 1679 ft 26 kts 138°
2026-04-23 18:52 46.90909 7.50332 1680 ft 9 kts 116°
2026-04-23 18:52 46.90956 7.50410 1682 ft 9 kts 354°
2026-04-23 18:52 46.90972 7.50399 1679 ft 0 kts 319°
2026-04-23 18:53 46.90974 7.50397 1679 ft 1 kts 318°
2026-04-23 18:53 46.90997 7.50367 1686 ft 8 kts 322°
2026-04-23 18:53 46.91051 7.50308 1681 ft 11 kts 322°
2026-04-23 18:54 46.91114 7.50231 1678 ft 13 kts 319°
2026-04-23 18:54 46.91183 7.50142 1678 ft 14 kts 319°
2026-04-23 18:54 46.91246 7.50066 1681 ft 7 kts 321°
2026-04-23 18:54 46.91288 7.50026 1679 ft 6 kts 13°
2026-04-23 18:55 46.91297 7.50053 1665 ft 4 kts 68°
2026-04-23 18:55 46.91312 7.50095 1677 ft 5 kts 78°
2026-04-23 18:55 46.91305 7.50110 1679 ft 2 kts 168°
2026-04-23 18:55 46.91293 7.50074 1701 ft 0 kts 284°